Find Starlink 3777

NORAD ID: 52294 Int'l Des: 2022-041 Owner: SPXS Country: US Constellation: starlink operational
LEOCIRCULAR

現在のビュー

3D地球を読み込み中...

Starlink 3777について

説明を読み込み中...

次回通過

Passes for default location (London). Set your location on the main map for personalized predictions.

高度履歴

Loading altitude history...

軌道要素

1 52294U 22041AK 26151.14861426 .00002080 00000-0 14874-3 0 9995
2 52294 53.1949 88.9381 0001027 45.5560 314.5516 15.08836041226952
Epoch: May 31, 2026 • Age: 11 hours

現在のステータス

高度 550.3 km
速度 7.59 km/s
衛星直下点 -31.90°S, 165.73°W
打ち上げ日 Apr 21, 2022
運用期間 4.1 years
タイプ internet

技術仕様

分類 Payload
質量 297.00 kg
乾燥質量 275.00 kg
総質量 297.00 kg
長さ 0.20 m
直径 2.80 m
スパン 9.00 m
形状 Box + pan
製造者 SPXS
バスタイプ Starlink
フェーズステータス In Orbit
所有者/国 SPXS/US

Most Searched